TimeMDT,TemperatureF,Dew PointF,Humidity,Sea Level PressureIn,VisibilityMPH,Wind Direction,Wind SpeedMPH,Gust SpeedMPH,PrecipitationIn,Events,Conditions,WindDirDegrees,DateUTC
12:53 AM,62.1,27.0,26,29.93,10.0,Calm,Calm,-,N/A,,Clear,0,2012-09-03 06:53:00
1:53 AM,57.9,28.0,32,29.94,10.0,South,3.5,-,N/A,,Clear,190,2012-09-03 07:53:00
2:53 AM,54.0,28.9,38,29.94,10.0,East,3.5,-,N/A,,Clear,100,2012-09-03 08:53:00
3:53 AM,61.0,28.9,30,29.94,10.0,Calm,Calm,-,N/A,,Clear,0,2012-09-03 09:53:00
4:53 AM,59.0,27.0,29,29.95,10.0,Calm,Calm,-,N/A,,Clear,0,2012-09-03 10:53:00
5:53 AM,57.0,28.9,34,29.96,10.0,NW,9.2,-,N/A,,Clear,310,2012-09-03 11:53:00
6:53 AM,57.0,28.9,34,29.99,10.0,WSW,8.1,-,N/A,,Clear,250,2012-09-03 12:53:00
7:53 AM,59.0,32.0,36,30.01,10.0,SW,4.6,-,N/A,,Clear,230,2012-09-03 13:53:00
8:53 AM,61.0,34.0,36,30.01,10.0,SE,3.5,-,N/A,,Clear,130,2012-09-03 14:53:00
9:53 AM,70.0,33.1,26,29.99,10.0,Calm,Calm,-,N/A,,Clear,0,2012-09-03 15:53:00
10:53 AM,73.9,30.0,20,29.98,10.0,Calm,Calm,-,N/A,,Clear,0,2012-09-03 16:53:00
11:53 AM,79.0,25.0,14,29.95,10.0,NE,6.9,-,N/A,,Clear,50,2012-09-03 17:53:00
12:53 PM,81.0,21.9,11,29.92,10.0,WNW,5.8,-,N/A,,Clear,300,2012-09-03 18:53:00
1:53 PM,82.0,19.0,10,29.93,10.0,WNW,19.6,28.8,N/A,,Clear,300,2012-09-03 19:53:00
2:53 PM,82.9,21.9,11,29.91,10.0,WNW,17.3,26.5,N/A,,Clear,290,2012-09-03 20:53:00
3:53 PM,84.0,21.9,10,29.87,10.0,NW,10.4,23.0,N/A,,Clear,310,2012-09-03 21:53:00
4:14 PM,84.2,21.2,10,30.08,10.0,West,10.4,20.7,N/A,,Clear,260,2012-09-03 22:14:00
4:53 PM,84.9,23.0,10,29.86,10.0,WNW,11.5,17.3,N/A,,Clear,300,2012-09-03 22:53:00
5:53 PM,82.9,21.0,10,29.86,10.0,NW,12.7,-,N/A,,Clear,310,2012-09-03 23:53:00
6:53 PM,80.1,21.0,11,29.87,10.0,WNW,11.5,-,N/A,,Clear,300,2012-09-04 00:53:00
7:53 PM,75.0,21.0,13,29.89,10.0,West,8.1,-,N/A,,Clear,270,2012-09-04 01:53:00
8:53 PM,70.0,21.0,16,29.93,10.0,SW,11.5,-,N/A,,Clear,230,2012-09-04 02:53:00
9:53 PM,70.0,19.9,15,29.92,10.0,WSW,10.4,-,N/A,,Clear,240,2012-09-04 03:53:00
10:53 PM,66.0,19.9,17,29.94,10.0,SW,6.9,-,N/A,,Clear,220,2012-09-04 04:53:00
11:53 PM,64.9,19.9,18,29.93,10.0,SW,10.4,-,N/A,,Clear,230,2012-09-04 05:53:00